2021-006DQ (47524 NORAD) Tracking and Keplerian Element Data

This shows tracking and keplerian element data for the satellite.

Feedback or suggestion? Click here.




ElementValue
Catalog47524
Name2021-006DQ
Epoch Orbit472
Epoch Day53.85929342
Epoch Year2021
RAAN117
Inclination97.5005
Eccentricity0.0010645
Argument of Perigee147.7591
Mean Anonmoly212.4292
Mean Motion15.11615254
Decay Rate1.437E-05
L11 47524U 21006DQ 21053.85929342 .00001437 00000-0 88276-4 0 9994
L22 47524 97.5005 117.0000 0010645 147.7591 212.4292 15.11615254 4725

Live tracking and technical data element details for 2021-006DQ (NORAD 47524). 2021-006DQ can be tracked NOW for your location showing map with azimuth and elevation plus other details from your city location.

Track the satellite on the map from your city or location and see movement details for azimuth, elevation, latitude, longitude, range, height, and movement on the map or in text.







IsCatalogInMostPopularTable: catalog: 47524, numindb: 16
Update: records affected: 1



GetName: 47524 2021-006DQ

Hit Count: updated at: Fri, 16 Apr 2021 11:28:16 GMT